Weather in Vyshneye Bolshoye

Russia / Lipetsk Oblast     51°58′36″N   37°51′58″E
temp.,
°C
wind,
m/s
gust,
m/s
humid.,
%
clouds,
%
prec.,
mm/h
press.,
hPa
HPBL,
m
27 october, wed
wed2700:00+2sw5145478 0.0 1028304
03:00+1sw51359100 0.0 1027292
06:00+1sw5146285 0.0 1025301
09:00+3sw615515 0.0 1024429
12:00+8sw812445 0.0 1023773
15:00+9sw711490 0.0 10211081
18:00+6wsw511705 0.0 1021328
21:00+6wsw51175100 0.0 1021445
28 october, thu
thu2800:00+7wsw4974100 0.0 1021326
03:00+4wsw3789100 0.0 1021133
06:00+4sw41091100 0.0 1020277
09:00+6sw6138391 0.0 1019446
12:00+7wsw71588100 0.8 1018652
15:00+7w61191100 1.3 1017542
18:00+7w51192100 0.1 1018471
21:00+7w4109349 0.1 1019283
29 october, fri
fri2900:00+8nnw510878 0.1 1021384
03:00+5nnw379697 0.1 1023163
06:00+7nne4678100 0.0 1025175
09:00+6nne3583100 0.0 1028219
12:00+8ne226599 0.0 1029916
15:00+9ene11605 0.0 1029804
18:00+6ne11745 0.0 103110
21:00+5sse11805 0.0 103210
30 october, sat
sat3000:00+4ssw22865 0.0 103217
03:00+3sw33895 0.0 103328
06:00+3sw22905 0.0 103324
09:00+5sw24845 0.0 1034110
12:00+10ssw34625 0.0 1034502
15:00+11ssw34545 0.0 1033687
18:00+7ssw33715 0.0 103325
21:00+6ssw33785 0.0 103336
31 october, sun
sun3100:00+5ssw33825 0.0 103435
03:00+4ssw33845 0.0 103426
06:00+3ssw33855 0.0 103325
09:00+5s23750 0.0 1033109
12:00+10s35530 0.0 1032465
15:00+11s35470 0.0 1030663
18:00+7sse33640 0.0 103026
21:00+6sse34760 0.0 103059